Flag for U.S.A. Weather past 2 weeks in Sunnyvale, California, U.S.A.

Now
67 °F

Sunny.


Feels Like: 67 °F
Forecast: 52 / 71 °F
Wind: 14 mph from North

Location: Moffett Field


UV Index: 5 (Moderate)

Visibility: 10 mi


Pressure: 29.88 "Hg

Humidity: 59%

Dew point: 52 °F

Location of SunnyvaleLocation

Historic Weather in Sunnyvale

°F

Sunnyvale temperature yesterday

Maximum temperature yesterday: 75 °F (at 1:56 PM)
Minimum temperature yesterday: 52 °F (at 4:56 AM)
Average temperature yesterday: 62 °F

Past Weeks' High & Low Weather Summary

 TemperatureHumidityPressure
High81 °F (Apr 8, 1:56 PM)88% (Apr 4, 7:59 AM)30.25 "Hg (Apr 4, 7:59 AM)
Low45 °F (Apr 3, 3:56 AM)29% (Apr 10, 3:56 PM)29.82 "Hg (Apr 17, 5:56 AM)
Average60 °F68%30.03 "Hg
* Reported Apr 2 12:56 PM — Apr 17 12:56 PM, Sunnyvale, Weather by CustomWeather, © 2014

Note: Actual official high and low records may vary slightly from our data, if they occured in-between our weather recording intervals... More about our weather records

Advertising

Historic Weather Conditions — Data for Previous 24 hours

 ConditionsComfort  
Time TempWeatherWind HumidityBarometerVisibility
12:56 PM
Apr 17
67 °FSunny.6 mph59%29.88 "Hg10 mi
11:56 AM64 °FSunny.7 mph68%29.89 "Hg10 mi
10:56 AM64 °FSunny.7 mph68%29.89 "Hg10 mi
9:56 AM63 °FSunny.6 mph70%29.88 "Hg9 mi
8:56 AM60 °FSunny.3 mph78%29.87 "Hg9 mi
7:56 AM58 °FSunny.No wind78%29.85 "Hg9 mi
6:56 AM55 °FClear.No wind80%29.84 "Hg10 mi
5:56 AM56 °FClear.No wind81%29.82 "Hg10 mi
4:56 AM56 °FClear.3 mph81%29.82 "Hg10 mi
3:56 AM57 °FClear.No wind78%29.83 "Hg10 mi
2:56 AM57 °FClear.No wind78%29.82 "Hg10 mi
1:56 AM58 °FClear.No wind75%29.84 "Hg10 mi
12:56 AM56 °FClear.No wind81%29.86 "Hg10 mi
11:56 PM
Apr 16
59 °FClear.No wind69%29.87 "Hg10 mi
10:56 PM59 °FClear.No wind72%29.88 "Hg10 mi
9:56 PM60 °FClear.8 mph69%29.87 "Hg10 mi
8:56 PM61 °FClear.10 mph75%29.85 "Hg10 mi
7:56 PM64 °FSunny.12 mph70%29.83 "Hg10 mi
6:56 PM67 °FSunny.14 mph61%29.83 "Hg10 mi
5:56 PM71 °FSunny.17 mph53%29.83 "Hg10 mi
4:56 PM74 °FSunny.12 mph41%29.83 "Hg10 mi
3:56 PM75 °FSunny.16 mph42%29.85 "Hg10 mi
2:56 PM75 °FSunny.13 mph42%29.86 "Hg10 mi
Weather by CustomWeather, © 2014

See weather overview